Tracking 28794 objects as of 22-Apr-2024
HD Live streaming from Space Station
objects crossing your sky now

LEMUR-2-DAYWZAGOODDAY

Track LEMUR-2-DAYWZAGOODDAY now!
10-day predictions
LEMUR-2-DAYWZAGOODDAY is classified as:


NORAD ID: 46501
Int'l Code: 2020-068R
Perigee: 461.9 km
Apogee: 475.5 km
Inclination: 97.8 °
Period: 93.8 minutes
Semi major axis: 6839 km
RCS: Unknown
Launch date: September 28, 2020
Source: United States (US)
Launch site: PLESETSK MISSILE AND SPACE COMPLEX (PKMTR)
Your satellite tracking list
Your tracking list is empty




NASA's NSSDC Master Catalog

Two Line Element Set (TLE):
1 46501U 20068R   24112.89014437  .00078836  00000-0  23165-2 0  9999
2 46501  97.7913  78.7840 0009936 121.8619 238.3592 15.34771661196327
Source of the keplerian elements: AFSPC